Location: Zürich
(47.3769°N, 8.5417°E)
Time: 06:12:07
(UTC+02:00)

ISS - Visible Passes

Search period start: 14 May 2026 00:00
Search period end: 24 May 2026 00:00
Orbit: 414 x 424 km, 51.6° (Epoch: 13 May)

Date Brightness Start Highest point End Pass type
(mag) Time Alt. Az. Time Alt. Az. Time Alt. Az.
14 May -1.9 00:58:43 10° WNW 01:00:22 26° WNW 01:00:22 26° WNW visible
14 May -2.3 22:34:02 10° WNW 22:37:12 38° N 22:40:22 10° ENE visible
15 May -3.1 00:11:05 10° WNW 00:14:19 54° N 00:14:19 54° N visible
15 May -2.5 21:46:15 10° W 21:49:27 41° N 21:52:39 10° ENE visible
15 May -2.7 23:23:25 10° WNW 23:26:39 44° NNE 23:28:15 25° ENE visible
16 May -1.4 01:00:15 10° WNW 01:01:11 17° WNW 01:01:11 17° WNW visible
16 May -2.5 22:35:42 10° WNW 22:38:53 39° N 22:42:04 10° ENE visible
17 May -3.0 00:12:33 10° WNW 00:15:06 49° WNW 00:15:06 49° WNW visible
17 May -2.4 21:47:57 10° WNW 21:51:06 37° N 21:54:15 10° ENE visible
17 May -3.6 23:24:53 10° WNW 23:28:13 70° NNE 23:29:01 47° E visible
18 May -3.1 22:37:12 10° WNW 22:40:29 54° NNE 22:42:56 16° E visible
19 May -2.1 00:14:06 10° WNW 00:15:52 25° W 00:15:52 25° W visible
19 May -2.8 21:49:29 10° WNW 21:52:43 44° N 21:55:57 10° E visible
19 May -3.7 23:26:19 10° WNW 23:29:37 58° SSW 23:29:48 57° SSW visible
20 May -3.9 22:38:35 10° WNW 22:41:56 85° SSW 22:43:45 25° ESE visible
21 May -1.2 00:16:07 10° W 00:16:41 12° WSW 00:16:41 12° WSW visible
21 May -3.6 21:50:52 10° WNW 21:54:13 69° NNE 21:57:32 10° ESE visible
21 May -2.3 23:27:58 10° W 23:30:39 25° SW 23:30:39 25° SW visible
22 May -3.0 22:40:03 10° WNW 22:43:10 38° SW 22:44:38 24° SSE visible
23 May -3.5 21:52:13 10° WNW 21:55:31 59° SSW 21:58:39 11° SE visible
23 May -1.2 23:31:01 10° WSW 23:31:36 10° SW 23:31:36 10° SW visible
